Regional Weather Roundup
Issued by NWS

Home | Current Version | Previous Version | Text Only | Print | Product List | Glossary On
Versions: 1 2 3 4 5 6 7 8 9 10 11 12 13 14 15 16 17 18 19 20 21 22 23 24 25 26 27 28 29 30 31 32 33 34 35 36 37 38 39 40 41 42 43 44 45 46 47 48 49 50
000
ASUS44 KJAN 250810
RWRMS

MISSISSIPPI HOURLY WEATHER ROUNDUP
NATIONAL WEATHER SERVICE JACKSON MS
300 AM CDT FRI APR 25 2014

NOTE: "FAIR: INDICATES FEW OR NO CLOUDS BELOW 12,000 FEET WITH NO
SIGNIFICANT WEATHER AND/OR OBSTRUCTIONS TO VISIBILITY.

MSZ001>002-007>008-010>013-018>021-025>028-034>036-250900-
NORTHWEST MISSISSIPPI

CITY           SKY/WX    TMP DP  RH WIND       PRES   REMARKS
CLARKSDALE       N/A     61  59  94 W8        29.85R
CLEVELAND      FAIR      61  57  87 W9        29.85S
GREENWOOD      CLEAR     61  57  87 SW3       29.85S
GREENVILLE     CLEAR     61  54  77 W9        29.86S
GRENADA        FAIR      59  55  88 W5        29.84S
OLIVE BRANCH   CLOUDY    61  61 100 W10G17    29.80R
OXFORD         MOCLDY    59  55  88 W7        29.84R
TUNICA         PTSUNNY   61  55  82 W10       29.83R
$$

MSZ003>006-009-014>017-022>024-029>033-037>039-250900-
NORTHEAST MISSISSIPPI

CITY           SKY/WX    TMP DP  RH WIND       PRES   REMARKS
BELMONT        CLOUDY    64  62  93 SW10G17   29.77R
COLUMBUS AFB   CLOUDY    65  64  96 SW12      29.82S
CORINTH        PTSUNNY   64  59  82 W13       29.76R
GOLDN TRIANGLE CLOUDY    64  61  88 W5        29.86S
STARKVILLE     PTSUNNY   63  61  94 W5        29.84S
TUPELO         PTCLDY    65  57  75 W10       29.79R
$$

MSZ040-058-250900-
CENTRAL MISSISSIPPI

CITY           SKY/WX    TMP DP  RH WIND       PRES   REMARKS
JACKSON INTL   LGT RAIN  63  60  90 CALM      29.89R
JACKSON HAWKNS CLOUDY    63  58  83 CALM      29.90S
MERIDIAN KEY   RAIN      66  61  84 NW10G23   29.88R
MERIDIAN NAS   LGT RAIN  69  64  84 W17       29.87R
RAYMOND        CLOUDY    63  57  82 CALM      29.90S
VICKSBURG      MOCLDY    70  66  87 NW5       29.89R
$$

MSZ059>079-250900-
SOUTH MISSISSIPPI

CITY           SKY/WX    TMP DP  RH WIND       PRES   REMARKS
BROOKHAVEN     PTSUNNY   66  64  94 SW6       29.92R
HATTIESBURG    PTCLDY    70  66  87 SW6       29.91F
MCCOMB         CLEAR     66  64  93 SW3       29.91S
NATCHEZ        CLOUDY    70  64  83 SW6       29.90S
PINE BELT      PTCLDY    68  63  83 SW6       29.91R
$$

MSZ080>082-250900-
COASTAL MISSISSIPPI

CITY           SKY/WX    TMP DP  RH WIND       PRES   REMARKS
BILOXI         MOCLDY    72  70  91 W10       29.92R
PASCAGOULA     CLOUDY    71  68  90 SW5       29.92S
GULFPORT       CLOUDY    74  68  81 SW5       29.92R
$$



USA.gov is the U.S. government's official web portal to all federal, state and local government web resources and services.